Regional Weather Roundup
Issued by NWS Boston, MA

Current Version | Previous Version | Text Only | Print | Product List | Glossary Off
Versions: 1 2 3 4 5 6 7 8 9 10 11 12 13 14 15 16 17 18 19 20 21 22 23 24 25 26 27

000
ASUS41 KBOX 250610
RWRBOX

REGIONAL WEATHER ROUNDUP
NATIONAL WEATHER SERVICE BOSTON/NORTON MA
200 AM EDT FRI MAY 25 2018

NOTE:  "FAIR" INDICATES FEW OR NO CLOUDS BELOW 12,000 FEET WITH NO
SIGNIFICANT WEATHER AND/OR OBSTRUCTIONS TO VISIBILITY.

MAZALL-250700-
EASTERN MASSACHUSETTS

CITY           SKY/WX    TMP DP  RH WIND       PRES   REMARKS
BOSTON         FAIR      55  48  77 SW14      30.01F
6HR MIN TEMP:  55; 6HR MAX TEMP:  61;

BEVERLY        FAIR      54  48  80 SW7       29.99F
LAWRENCE       FAIR      58  49  72 SW12      30.00F
BEDFORD        FAIR      54  49  83 SW7       30.00F
BLUE HILL        N/A     50  48  93 S15       30.01F
NORWOOD        FAIR      54  48  80 S7        30.03F
MARSHFIELD     FAIR      52  50  93 SW9G20    30.02F
PLYMOUTH       FAIR      51  48  89 SW9       30.06F
TAUNTON        FAIR      52  49  89 SW3       30.05F
NEW BEDFORD    FAIR      50  50 100 SW6       30.06F
$$

MAZALL-250700-
CAPE COD AND THE ISLANDS

CITY           SKY/WX    TMP DP  RH WIND       PRES   REMARKS
FALMOUTH         N/A     50  50 100 SW10      30.08F
HYANNIS        FAIR      54  51  90 SW12      30.05F
CHATHAM        MOCLDY    54  52  93 SW10G22   30.07F
PROVINCETOWN   FAIR      52  50  93 S15       30.04F
NANTUCKET      FOG       52  52 100 SW13      30.08F VSB 1/4
MARTHAS VNYRD  CLOUDY    52  51  97 SW9       30.08F FOG
$$

MAZALL-250700-
CENTRAL AND WESTERN MASSACHUSETTS

CITY           SKY/WX    TMP DP  RH WIND       PRES   REMARKS
WORCESTER      FAIR      55  46  71 W14       30.04
6HR MIN TEMP:  54; 6HR MAX TEMP:  66;

FITCHBURG      FAIR      54  52  93 CALM      30.01F
ORANGE         FAIR      50  48  93 CALM      30.04F
SPRINGFIELD    FAIR      54  49  83 S5        30.03F
WESTFIELD      FAIR      54  52  93 S3        30.04F
NORTH ADAMS    FAIR      49  45  86 CALM      30.03F
PITTSFIELD     FAIR      50  46  86 CALM      30.04F
$$

RIZALL-250700-
RHODE ISLAND

CITY           SKY/WX    TMP DP  RH WIND       PRES   REMARKS
PROVIDENCE     FAIR      50  48  93 SW5       30.07F
6HR MIN TEMP:  50; 6HR MAX TEMP:  56;

NEWPORT        FOG       52  52 100 VRB7      30.07F VSB 3/4
BLOCK ISLAND   LGT RAIN  53  53 100 SW12      30.09F VSB 1/2
SMITHFIELD     FAIR      50  47  89 MISG      30.05F
WESTERLY       FOG       53  53 100 S5        30.08F VSB 1/4
$$

CTZALL-250700-
CONNECTICUT

CITY           SKY/WX    TMP DP  RH WIND       PRES   REMARKS
BRADLEY INTL   FAIR      54  51  90 S6        30.05F
6HR MIN TEMP:  54; 6HR MAX TEMP:  76;

HARTFORD       FAIR      54  51  90 S7        30.05F
BRIDGEPORT     FAIR      57  52  83 N3        30.06F
DANBURY        FAIR      53  49  86 SW3       30.08F
GROTON         FOG       51  51 100 S5        30.07F VSB 1/4
NEW HAVEN      FAIR      54  52  93 CALM      30.07F
CHESTER        FAIR      52  52 100 CALM      30.07F
MERIDEN        FAIR      51  50  96 CALM      30.07F
WILLIMANTIC    FAIR      51  48  89 CALM      30.07F
OXFORD         FAIR      52  49  89 CALM      30.08F
$$

MEZ002-015-021-024-NHZ003-005-008-011-012-014-VTZ005-008-250700-
NORTHERN NEW ENGLAND

CITY           SKY/WX    TMP DP  RH WIND       PRES   REMARKS
PORTLAND ME    FAIR      53  50  89 SW6       29.93F
6HR MIN TEMP:  52; 6HR MAX TEMP:  54;

BANGOR ME      FAIR      51  47  86 S10       29.88F
CONCORD NH     FAIR      54  49  83 S3        29.97F
MANCHESTER NH  FAIR      60  51  72 S5        29.97F
NASHUA NH      FAIR      56  52  86 CALM      29.99F
PORTSMOUTH NH  PTCLDY    54  49  82 SW7       29.95F
JAFFREY NH     FAIR      57  50  77 S8        30.03F
KEENE NH       FAIR      47  45  93 CALM      30.02F
BURLINGTON VT  FAIR      66  42  41 S10       29.91F
MT. WASHINGTON PTCLDY    45  32  61 W60G67      N/A  WCI  31
$$

NYZ052-076-250700-
EASTERN NEW YORK

CITY           SKY/WX    TMP DP  RH WIND       PRES   REMARKS
ALBANY         FAIR      59  46  62 CALM      30.01F
6HR MIN TEMP:  57; 6HR MAX TEMP:  73;

NEW YORK CITY  FAIR      71  46  40 SW12G21   30.07F
6HR MIN TEMP:  70; 6HR MAX TEMP:  76;

$$

ANZALL-250700-
MARINE OBSERVATIONS

STATION/POSITION TIME  TEMP    WIND        PRES    VSBY  WAVE
                       AIR SEA DIR/SP/G                  HT/PER
                 (UTC) (F)     (DEG/KT/KT) (MB)    (MI)  (FT/S)
BOSTON BUOY      0550   55 54  210/ 14/ 16 1016.3F         2/ 4
BUZZARDS BAY     0500   50     220/ 14/ 16 1019.8F
NANTUCKET SOUND  0550   53 56  220/ 16/ 19 1018.2F         2/ 4
MASS BAY-STELLWA 0504   54 55              1015.1F         3/ 4
ISLE OF SHOALS   0600   55     230/ 19/ 20 1013.9F
S OF BLOCK IS    0543      51                N/A           3/ 3
$$

......................KEY.........................
  SKY/WX - SKY CONDITION/PRESENT WEATHER
  TMP    - TEMPERATURE IN FAHRENHEIT
  DWPT   - DEWPOINT IN FAHRENHEIT
  RH     - RELATIVE HUMIDITY IN PERCENT
  WIND   - DIRECTION AND SPEED IN MPH
  PRES   - MEAN SEA LEVEL PRESSURE IN INCHES OF HG
  WCI    - WIND CHILL INDEX
  VSB    - VISIBILITY IN MILES
  HX     - HEAT INDEX
  TC     - TEMPERATURE IN CELSIUS
  VRB    - VARIABLE WIND DIRECTION
  N/A    - NOT AVAILABLE




USA.gov is the U.S. government's official web portal to all federal, state and local government web resources and services.